Weather in Vologda

Russia / Vologda Oblast     59°13′13″N   39°53′29″E
temp.,
°C
wind,
m/s
gust,
m/s
humid.,
%
clouds,
%
prec.,
mm/h
press.,
hPa
HPBL,
m
23 may, mon
mon2300:00−1nnw378519 0.0 1007131
03:00−1nnw41082100 0.0 1006331
06:00+1nnw6969100 0.0 1004680
09:00+4nnw7954100 0.0 10021139
12:00+4nnw7951100 0.0 10021331
15:00+3nnw71276100 0.2 10031158
18:00+3nnw71483100 0.7 10021290
21:00+1nw71397100 1.8 1002853
24 may, tue
tue2400:00+1n4998100 0.7 1002711
03:000nnw3899100 1.3 1003454
06:00+1nnw4898100 0.9 1004472
09:00+3n568599 1.4 1005930
12:00+4n5679100 0.3 10071028
15:00+5n5676100 0.4 10091060
18:00+5nnw467670 0.1 1010969
21:00+3nnw4989100 0.2 1012329
25 may, wed
wed2500:00+2nnw4992100 0.0 1013335
03:00+2nnw3796100 0.0 1014335
06:00+2nnw3691100 0.0 1014516
09:00+5nnw4578100 0.0 1014835
12:00+7nw4570100 0.1 10141131
15:00+10nw456377 0.4 10131336
18:00+9nw4567100 0.1 10131055
21:00+5wnw228099 0.1 101319
26 may, thu
thu2600:00+4w3583100 0.0 101289
03:00+4nw228698 0.0 101150
06:00+4wsw1190100 0.1 101060
09:00+5e118697 0.2 1008272
12:00+9ese1270100 0.1 1007776
15:00+12nne235464 0.2 10041380
18:00+12ne326142 0.0 1002677
21:00+6e369267 0.0 100099
27 may, fri
fri2700:00+4ene3795100 0.0 999137
03:00+5ne2493100 0.0 997127
06:00+5ne3695100 1.1 996165
09:00+6ene2297100 3.6 997114
12:00+7wnw2294100 0.4 998215
15:00+11wsw238085 0.4 998656
18:00+12ssw237765 0.0 998470
21:00+10sw3590100 0.3 998108